Regional Weather Roundup
Issued by NWS

Home | Current Version | Previous Version | Graphics & Text | Print | Product List | Glossary On
Versions: 1 2 3 4 5 6 7 8 9 10 11 12 13 14 15 16 17 18 19 20 21 22 23 24 25 26 27 28 29 30 31 32 33 34 35 36 37 38 39 40 41 42 43 44 45 46 47 48 49 50
000
ASUS43 KDMX 262207
RWRIA

WEATHER ROUNDUP FOR IOWA
NATIONAL WEATHER SERVICE DES MOINES IA
500 PM CDT TUE AUG 26 2014

NOTE: "FAIR" INDICATES FEW OR NO CLOUDS BELOW 12,000 FEET WITH NO
SIGNIFICANT WEATHER AND/OR OBSTRUCTIONS TO VISIBILITY.

* - THESE STATIONS ARE NOT NWS STATIONS...THUS NOT UNDER NWS
QUALITY CONTROL.  THEY ALSO DO NOT REPORT WEATHER SUCH
AS PRECIPITATION OR FOG.

IAZ001>003-012>014-020>022-031>034-043>046-262300-
   NORTHWEST IOWA

CITY           SKY/WX    TMP DP  RH WIND       PRES   REMARKS
CARROLL *      SUNNY     73  64  73 NE6       30.14F
CHEROKEE *     CLOUDY    70  61  73 CALM      30.16S
DENISON *      MOSUNNY   73  64  73 NE6       30.12F
LE MARS *      CLOUDY    72  59  64 E5        30.16F
ORANGE CITY *  MOSUNNY   72  57  60 E5        30.16F
SHELDON *      SUNNY     70  59  68 E6        30.16F
SIOUX CITY     PTSUNNY   73  60  63 NE7       30.14F
SPENCER        PTSUNNY   71  56  58 CALM      30.17F
STORM LAKE *   SUNNY     68  63  83 E3        30.17F
$$

IAZ055>058-069>071-079>083-090>094-262300-
   SOUTHWEST IOWA

CITY           SKY/WX    TMP DP  RH WIND       PRES   REMARKS
ATLANTIC *     SUNNY     77  66  69 E9        30.11F
AUDUBON *      SUNNY     77  70  78 E6        30.15F
CLARINDA *     MOSUNNY   81  70  69 NE7       30.11F HX  84
COUNCIL BLFS * MOSUNNY   77  70  78 E7        30.11F
CRESTON *      SUNNY     79  66  65 VRB5      30.13F HX  81
HARLAN  *      SUNNY     75  66  73 E9        30.15F
LAMONI         MOSUNNY   80  69  69 NE8       30.11F HX  83
RED OAK *      MOSUNNY   79  68  69 E8        30.11F HX  81
SHENANDOAH *   MOSUNNY   81  70  69 E7        30.10F HX  84
$$

IAZ047>049-059>061-072>074-084-262300-
   CENTRAL IOWA

CITY           SKY/WX    TMP DP  RH WIND       PRES   REMARKS
AMES           PTSUNNY   76  65  68 SE6       30.13F
ANKENY *       MOSUNNY   77  66  69 NE6       30.12F
CHARITON *     SUNNY     79  68  69 N6        30.12S HX  81
DES MOINES     MOSUNNY   81  62  52 VRB3      30.11F HX  82
GRINNELL*      SUNNY     75  66  73 NW5       30.14S
KNOXVILLE *    SUNNY     79  64  61 NE6       30.11S HX  81
MARSHALLTOWN   MOSUNNY   76  61  59 CALM      30.13S
PELLA *        MOSUNNY   81  66  61 CALM      30.13S HX  83
PERRY *          N/A     77  64  65 E5        30.14F
$$

IAZ004>006-015-016-023>025-035-036-262300-
   NORTH CENTRAL IOWA

CITY           SKY/WX    TMP DP  RH WIND       PRES   REMARKS
ALGONA *       SUNNY     70  59  68 N6        30.16F
CLARION *      SUNNY     75  61  60 VRB5      30.15S
ESTHERVILLE    MOSUNNY   71  54  54 N7        30.17F
FORT DODGE *   PTSUNNY   73  61  64 N3        30.16S
MASON CITY     SUNNY     73  56  54 N7        30.16F
FOREST CITY *  SUNNY     72  55  56 N3        30.16S
IOWA FALLS *     N/A     73  61  64 W3        30.16R
$$

IAZ007>011-017>019-026>030-037>042-050>054-066-262300-
   NORTHEAST IOWA

CITY           SKY/WX    TMP DP  RH WIND       PRES   REMARKS
CEDAR RAPIDS   PTSUNNY   78  65  63 NW10      30.11R HX  80
CHARLES CITY * SUNNY     75  59  57 VRB6      30.14F
CLINTON *      SUNNY     81  66  61 NE3       30.12F HX  83
DECORAH *      SUNNY     73  55  53 NW6       30.14S
DUBUQUE        SUNNY     77  63  61 NW7       30.12F
MONTICELLO *   SUNNY     77  64  65 CALM      30.12R
OELWEIN *      SUNNY     75  61  60 N8        30.14S
WATERLOO       SUNNY     78  60  53 N7        30.11S
$$

IAZ064-065-067-068-078-262300-
   EAST CENTRAL IOWA

CITY           SKY/WX    TMP DP  RH WIND       PRES   REMARKS
DAVENPORT      SUNNY     80  65  59 NE6       30.10F HX  82
IOWA CITY      PTSUNNY   80  65  59 N6        30.11S HX  82
MT. PLEASANT * MOSUNNY   82  64  54 NE6       30.10S HX  84
MUSCATINE *    SUNNY     82  66  57 VRB6      30.09S HX  85
QUAD CITIES    SUNNY     84  62  47 N6        30.09S HX  85
$$

IAZ062-063-075>077-085>089-095>099-262300-
   SOUTHEAST IOWA

CITY           SKY/WX    TMP DP  RH WIND       PRES   REMARKS
BURLINGTON     MOSUNNY   83  70  64 NE13      30.08S HX  87
FAIRFIELD *    SUNNY     81  68  65 VRB3      30.11S HX  83
FORT MADISON * SUNNY     84  72  65 N8        30.09S HX  89
KEOKUK *       SUNNY     84  72  65 N9        30.07S HX  89
OSKALOOSA *      N/A     79  68  69 NE5       30.11F HX  81
CENTERVILLE *  SUNNY     81  72  74 NE6       30.12S HX  84
OTTUMWA        MOSUNNY   82  66  58 VRB6      30.09F HX  84
WASHINGTON *   SUNNY     81  68  65 VRB6      30.11S HX  83
$$

ABBREVIATIONS USED IN REMARKS
   TC - TEMPERATURES IN CELSIUS
  WCI - WIND CHILL INDEX
   HX - HEAT INDEX
  VSB - VISIBILITY
$$



USA.gov is the U.S. government's official web portal to all federal, state and local government web resources and services.